Location: Alfortville
(48.8058°N, 2.4204°E)
Time: 06:38:04
(UTC+00:00)

Max Valier Satellite - Visible Passes

Search period start: 01 April 2023 00:00
Search period end: 11 April 2023 00:00
Orbit: 454 x 466 km, 97.2° (Epoch: 31 March)

Date Brightness Start Highest point End Pass type
(mag) Time Alt. Az. Time Alt. Az. Time Alt. Az.
01 Apr ? 19:26:50 10° S 19:30:11 52° W 19:33:33 10° NNW visible
02 Apr ? 18:54:58 10° SSE 18:58:19 60° ENE 19:01:44 10° N visible
02 Apr ? 20:30:59 10° W 20:31:41 10° W 20:32:24 10° WNW visible
03 Apr ? 19:56:43 10° SSW 19:59:31 23° W 20:02:21 10° NW visible
04 Apr ? 19:24:03 10° S 19:27:25 57° W 19:30:50 10° NNW visible
05 Apr ? 18:52:05 10° SSE 18:55:26 55° ENE 18:58:48 10° N visible
05 Apr ? 20:27:36 10° WSW 20:28:45 11° W 20:29:54 10° WNW visible
06 Apr ? 19:53:31 10° SSW 19:56:25 25° W 19:59:21 10° NW visible
07 Apr ? 19:20:47 10° S 19:24:11 63° W 19:27:37 10° NNW visible
08 Apr ? 20:23:48 10° WSW 20:25:17 12° W 20:26:48 10° WNW visible
09 Apr ? 19:49:49 10° SSW 19:52:49 28° W 19:55:50 10° NW visible
10 Apr ? 19:17:00 10° S 19:20:25 70° WSW 19:23:52 10° NNW visible
